Tacoma MET current weather conditions

sailwx.info

Wind from 146 at 4 knots gusting 6

Last reported at 2020-Sep-25 12:00 UTC.
Time now 2020-Sep-25 12:54 UTC

Location: N 47°17' W 122°25'.
View on Google Maps.

See reports from other nearby stations

  
Tides and Currents Weather Stations Pressure Air Temp Water Temp Dewpoint Dewpoint Depression Visibility Wind Speed Wind Dir Waves Ship Positions
date/time (UTC)wind fromknots sea level pressurealtimeterstation pressurevisibilityair tempwater tempwave heightnotes
2020-Sep-25 12:00 146 4 gusting 6
2020-Sep-25 11:42 138 5 gusting 6
2020-Sep-25 11:36 133 4 gusting 6
2020-Sep-25 11:30 147 5 gusting 6
2020-Sep-25 11:24 144 5 gusting 6
2020-Sep-25 11:18 144 5 gusting 6
2020-Sep-25 11:12 146 5 gusting 6
2020-Sep-25 11:06 147 5 gusting 8
2020-Sep-25 11:00 141 6 gusting 10
2020-Sep-25 10:54 141 7 gusting 8
2020-Sep-25 10:48 141 7 gusting 10
2020-Sep-25 10:42 138 6 gusting 8
2020-Sep-25 10:36 145 6 gusting 9
2020-Sep-25 10:30 153 6 gusting 11
2020-Sep-25 10:24 151 7 gusting 10
2020-Sep-25 10:18 154 6 gusting 7
2020-Sep-25 10:12 158 6 gusting 10
2020-Sep-25 10:06 154 7 gusting 10
2020-Sep-25 10:00 153 6 gusting 8
2020-Sep-25 09:54 152 6 gusting 8
2020-Sep-25 09:48 147 5 gusting 7
2020-Sep-25 09:42 138 5 gusting 6
2020-Sep-25 09:36 147 5 gusting 6
2020-Sep-25 09:30 146 5 gusting 7
2020-Sep-25 09:24 144 4 gusting 6
2020-Sep-25 09:18 136 2 gusting 4
2020-Sep-25 09:12 130 2 gusting 3
2020-Sep-25 09:06 130 2 gusting 4
2020-Sep-25 09:00 121 1 gusting 3
2020-Sep-25 08:54 111 3 gusting 4
2020-Sep-25 08:48 114 2 gusting 3
2020-Sep-25 08:42 112 2 gusting 5
2020-Sep-25 08:36 113 3 gusting 4
2020-Sep-25 08:30 131 2 gusting 4
2020-Sep-25 08:24 111 4 gusting 5
2020-Sep-25 08:18 133 2 gusting 5
2020-Sep-25 08:12 140 3 gusting 6
2020-Sep-25 08:06 138 3 gusting 5
2020-Sep-25 08:00 124 3 gusting 5
2020-Sep-25 07:54 120 3 gusting 5
2020-Sep-25 07:48 111 4 gusting 6
2020-Sep-25 07:42 119 3 gusting 5
2020-Sep-25 07:36 118 4 gusting 6
2020-Sep-25 07:30 116 4 gusting 6
2020-Sep-25 07:24 114 5 gusting 6
2020-Sep-25 07:18 096 4 gusting 6
2020-Sep-25 07:12 110 5 gusting 6
2020-Sep-25 07:06 114 5 gusting 7
2020-Sep-25 07:00 114 5 gusting 6
2020-Sep-25 06:54 113 5 gusting 6
2020-Sep-25 06:48 118 4 gusting 6
2020-Sep-25 06:42 118 5 gusting 7
2020-Sep-25 06:36 113 6 gusting 6
2020-Sep-25 06:30 118 5 gusting 7
2020-Sep-25 06:24 114 6 gusting 7
2020-Sep-25 06:18 111 6 gusting 6
2020-Sep-25 06:12 113 5 gusting 6
2020-Sep-25 06:06 115 5 gusting 6
2020-Sep-25 06:00 116 5 gusting 7
2020-Sep-25 05:54 123 5 gusting 8
2020-Sep-25 05:48 116 5 gusting 6
2020-Sep-25 05:42 111 5 gusting 8
2020-Sep-25 05:36 106 4 gusting 5
2020-Sep-25 05:30 109 4 gusting 6
2020-Sep-25 05:24 105 4 gusting 6
2020-Sep-25 05:18 112 5 gusting 6
2020-Sep-25 05:12 116 5 gusting 6
2020-Sep-25 05:06 111 6 gusting 7
2020-Sep-25 05:00 113 5 gusting 6
2020-Sep-25 04:54 111 5 gusting 6
2020-Sep-25 04:48 113 6 gusting 6
2020-Sep-25 04:42 112 4 gusting 6
2020-Sep-25 04:36 113 6 gusting 6
2020-Sep-25 04:30 138 5 gusting 8
2020-Sep-25 04:24 148 6 gusting 7
2020-Sep-25 04:18 149 6 gusting 7
2020-Sep-25 04:12 148 6 gusting 6
2020-Sep-25 04:06 139 5 gusting 6
2020-Sep-25 04:00 141 4 gusting 6
2020-Sep-25 03:54 140 5 gusting 6
2020-Sep-25 03:48 137 5 gusting 6
2020-Sep-25 03:42 131 5 gusting 7
2020-Sep-25 03:36 136 6 gusting 9
2020-Sep-25 03:30 130 5 gusting 7
2020-Sep-25 03:24 135 5 gusting 7
2020-Sep-25 03:18 136 6 gusting 8
2020-Sep-25 03:12 136 6 gusting 6
2020-Sep-25 03:06 130 3 gusting 6
2020-Sep-25 03:00 137 6 gusting 7
2020-Sep-25 02:54 135 5 gusting 6
2020-Sep-25 02:48 132 4 gusting 6
2020-Sep-25 02:42 133 4 gusting 6
2020-Sep-25 02:36 139 6 gusting 7
2020-Sep-25 02:30 133 4 gusting 6
2020-Sep-25 02:24 132 3 gusting 5
2020-Sep-25 02:18 124 4 gusting 5
2020-Sep-25 02:12 123 4 gusting 5
2020-Sep-25 02:06 126 4 gusting 6
2020-Sep-25 02:00 124 4 gusting 10
2020-Sep-25 01:54 139 6 gusting 10
2020-Sep-25 01:48 131 7 gusting 9
2020-Sep-25 01:42 144 4 gusting 5
2020-Sep-25 01:36 133 5 gusting 6
2020-Sep-25 01:30 127 4 gusting 6
2020-Sep-25 01:24 127 5 gusting 7
2020-Sep-25 01:18 132 5 gusting 6
2020-Sep-25 01:12 138 5 gusting 7
2020-Sep-25 01:06 138 5 gusting 6
2020-Sep-25 01:00 153 5 gusting 6
2020-Sep-25 00:54 151 5 gusting 6
2020-Sep-25 00:48 152 3 gusting 5
2020-Sep-25 00:42 154 3 gusting 5
2020-Sep-25 00:36 154 3 gusting 5
2020-Sep-25 00:30 171 3 gusting 6
2020-Sep-25 00:24 223 4 gusting 5
2020-Sep-25 00:18 232 3 gusting 4
2020-Sep-25 00:12 225 4 gusting 6
2020-Sep-25 00:06 227 4 gusting 8
2020-Sep-25 00:00 213 5 gusting 9
2020-Sep-24 23:48 219 5 gusting 10
2020-Sep-24 23:42 227 7 gusting 9
2020-Sep-24 23:36 229 6 gusting 7
2020-Sep-24 23:30 213 6 gusting 8
2020-Sep-24 23:24 207 4 gusting 6
2020-Sep-24 23:18 169 4 gusting 6
2020-Sep-24 23:12 149 3 gusting 6
2020-Sep-24 23:06 142 2 gusting 6
2020-Sep-24 23:00 133 4 gusting 5
2020-Sep-24 22:54 161 3 gusting 4
2020-Sep-24 22:48 166 4 gusting 6
2020-Sep-24 22:42 152 4 gusting 6
2020-Sep-24 22:36 153 4 gusting 6
2020-Sep-24 22:30 181 3 gusting 11
2020-Sep-24 22:24 180 5 gusting 13
2020-Sep-24 22:18 190 7 gusting 12
2020-Sep-24 22:12 183 7 gusting 13
2020-Sep-24 22:06 215 10 gusting 16
2020-Sep-24 22:00 227 8 gusting 12
2020-Sep-24 21:54 218 6 gusting 9
2020-Sep-24 21:48 191 5 gusting 6
2020-Sep-24 21:42 184 5 gusting 8
2020-Sep-24 21:36 197 4 gusting 8
2020-Sep-24 21:30 207 5 gusting 8
2020-Sep-24 21:24 199 6 gusting 10
2020-Sep-24 21:18 193 6 gusting 13
2020-Sep-24 21:12 193 4 gusting 9
2020-Sep-24 21:06 187 5 gusting 9
2020-Sep-24 21:00 176 4 gusting 8
2020-Sep-24 20:54 169 4 gusting 7
2020-Sep-24 20:48 186 5 gusting 9
2020-Sep-24 20:42 188 2 gusting 8
2020-Sep-24 20:36 168 6 gusting 9
2020-Sep-24 20:30 181 5 gusting 8
2020-Sep-24 20:24 169 6 gusting 9
2020-Sep-24 20:18 163 6 gusting 9
2020-Sep-24 20:12 192 6 gusting 11
2020-Sep-24 20:06 221 9 gusting 14
2020-Sep-24 20:00 213 11 gusting 14
2020-Sep-24 19:54 210 14 gusting 17
2020-Sep-24 19:48 210 9 gusting 13
2020-Sep-24 19:42 221 8 gusting 9
2020-Sep-24 19:36 213 6 gusting 11
2020-Sep-24 19:30 201 7 gusting 12
2020-Sep-24 19:24 200 7 gusting 10
2020-Sep-24 19:18 205 6 gusting 9
2020-Sep-24 19:12 185 4 gusting 9
2020-Sep-24 19:06 184 6 gusting 12
2020-Sep-24 19:00 182 5 gusting 8
2020-Sep-24 18:54 242 4 gusting 7
2020-Sep-24 18:48 225 5 gusting 7
2020-Sep-24 18:42 175 2 gusting 12
2020-Sep-24 18:36 174 5 gusting 10
2020-Sep-24 18:30 174 5 gusting 9
2020-Sep-24 18:24 168 4 gusting 8
2020-Sep-24 18:18 168 3 gusting 6
2020-Sep-24 18:12 174 4 gusting 10
2020-Sep-24 18:06 194 8 gusting 13
2020-Sep-24 18:00 181 6 gusting 13
2020-Sep-24 17:54 171 4 gusting 8
2020-Sep-24 17:48 188 5 gusting 8
2020-Sep-24 17:42 182 6 gusting 10
2020-Sep-24 17:36 172 4 gusting 10
2020-Sep-24 17:30 183 8 gusting 16
2020-Sep-24 17:24 186 7 gusting 11
2020-Sep-24 17:18 170 6 gusting 11
2020-Sep-24 17:12 173 6 gusting 12
2020-Sep-24 17:06 161 4 gusting 7
2020-Sep-24 17:00 175 5 gusting 8
2020-Sep-24 16:54 158 5 gusting 12
2020-Sep-24 16:48 157 4 gusting 8
2020-Sep-24 16:42 157 3 gusting 7
2020-Sep-24 16:36 170 6 gusting 9
2020-Sep-24 16:30 171 4 gusting 7
2020-Sep-24 16:24 163 4 gusting 6
2020-Sep-24 16:18 144 6 gusting 9
2020-Sep-24 16:12 148 6 gusting 8
2020-Sep-24 16:06 137 6 gusting 10
2020-Sep-24 16:00 140 6 gusting 8
2020-Sep-24 15:54 144 5 gusting 7
2020-Sep-24 15:48 139 4 gusting 8
2020-Sep-24 15:42 145 5 gusting 8
2020-Sep-24 15:36 146 6 gusting 10
2020-Sep-24 15:30 148 6 gusting 10
2020-Sep-24 15:24 150 6 gusting 9
2020-Sep-24 15:18 147 6 gusting 11
2020-Sep-24 15:12 149 5 gusting 7
2020-Sep-24 15:06 160 5 gusting 9
2020-Sep-24 15:00 148 6 gusting 8
2020-Sep-24 14:54 146 6 gusting 9
2020-Sep-24 14:48 149 6 gusting 9
2020-Sep-24 14:42 149 6 gusting 8
2020-Sep-24 14:36 139 6 gusting 9
2020-Sep-24 14:30 142 6 gusting 11
2020-Sep-24 14:24 141 7 gusting 8
2020-Sep-24 14:18 142 6 gusting 7
2020-Sep-24 14:12 137 6 gusting 8
2020-Sep-24 14:06 142 4 gusting 6
2020-Sep-24 14:00 143 5 gusting 9
2020-Sep-24 13:54 145 6 gusting 7
2020-Sep-24 13:48 145 6 gusting 7
2020-Sep-24 13:42 144 4 gusting 6
2020-Sep-24 13:36 150 4 gusting 8
2020-Sep-24 13:30 149 3 gusting 6
2020-Sep-24 13:24 158 6 gusting 8
2020-Sep-24 13:18 151 5 gusting 8
2020-Sep-24 13:12 146 6 gusting 9
2020-Sep-24 13:06 143 7 gusting 10
2020-Sep-24 13:00 143 7 gusting 11
2020-Sep-24 12:54 144 7 gusting 9
2020-Sep-24 12:48 146 7 gusting 11
2020-Sep-24 12:42 146 6 gusting 9
2020-Sep-24 12:36 146 6 gusting 9
2020-Sep-24 12:30 140 6 gusting 7
2020-Sep-24 12:24 141 5 gusting 10
2020-Sep-24 12:18 136 5 gusting 8
2020-Sep-24 12:12 139 5 gusting 8
2020-Sep-24 12:06 139 6 gusting 9
2020-Sep-24 12:00 138 6 gusting 8
2020-Sep-24 11:54 135 6 gusting 10
2020-Sep-24 11:48 137 6 gusting 9
2020-Sep-24 11:42 136 6 gusting 9
2020-Sep-24 11:36 136 6 gusting 9
2020-Sep-24 11:30 137 6 gusting 9
2020-Sep-24 11:24 139 6 gusting 11
2020-Sep-24 11:18 134 6 gusting 9
2020-Sep-24 11:12 130 6 gusting 8
2020-Sep-24 11:06 135 5 gusting 7
2020-Sep-24 11:00 136 6 gusting 8
2020-Sep-24 10:54 138 7 gusting 10
2020-Sep-24 10:48 142 6 gusting 7
2020-Sep-24 10:42 142 6 gusting 9
2020-Sep-24 10:36 139 7 gusting 10
2020-Sep-24 10:30 141 6 gusting 7
2020-Sep-24 10:24 148 4 gusting 6
2020-Sep-24 10:18 162 3 gusting 6
2020-Sep-24 10:12 150 3 gusting 6
2020-Sep-24 10:06 159 3 gusting 7
2020-Sep-24 10:00 163 3 gusting 9
2020-Sep-24 09:54 151 4 gusting 10
2020-Sep-24 09:48 173 4 gusting 6
2020-Sep-24 09:42 162 5 gusting 8
2020-Sep-24 09:36 170 4 gusting 8
2020-Sep-24 09:30 161 5 gusting 11
2020-Sep-24 09:24 159 4 gusting 10
2020-Sep-24 09:18 166 6 gusting 11
2020-Sep-24 09:12 171 7 gusting 10
2020-Sep-24 09:06 168 4 gusting 7
2020-Sep-24 09:00 165 6 gusting 9
2020-Sep-24 08:54 170 5 gusting 8
2020-Sep-24 08:48 167 6 gusting 9
2020-Sep-24 08:42 177 5 gusting 10
2020-Sep-24 08:36 174 6 gusting 9
2020-Sep-24 08:30 172 6 gusting 10
2020-Sep-24 08:24 175 5 gusting 9
2020-Sep-24 08:18 168 3 gusting 10
2020-Sep-24 08:12 165 5 gusting 9
2020-Sep-24 08:06 172 7 gusting 10
2020-Sep-24 08:00 172 4 gusting 7
2020-Sep-24 07:54 168 6 gusting 9
2020-Sep-24 07:48 164 5 gusting 8
2020-Sep-24 07:42 158 4 gusting 9
2020-Sep-24 07:36 163 6 gusting 11
2020-Sep-24 07:30 172 6 gusting 11
2020-Sep-24 07:24 166 5 gusting 11
2020-Sep-24 07:18 172 6 gusting 10
2020-Sep-24 07:12 170 6 gusting 10
2020-Sep-24 07:06 173 6 gusting 13
2020-Sep-24 07:00 170 7 gusting 12
2020-Sep-24 06:54 168 5 gusting 10
2020-Sep-24 06:48 171 5 gusting 8
2020-Sep-24 06:42 167 6 gusting 9
2020-Sep-24 06:36 175 4 gusting 8
2020-Sep-24 06:30 169 6 gusting 10
2020-Sep-24 06:24 178 5 gusting 13
2020-Sep-24 06:18 171 6 gusting 10
2020-Sep-24 06:12 162 6 gusting 9
2020-Sep-24 06:06 170 5 gusting 8
2020-Sep-24 06:00 171 6 gusting 11
2020-Sep-24 05:54 177 4 gusting 11
2020-Sep-24 05:48 194 10 gusting 16
2020-Sep-24 05:42 199 9 gusting 13
2020-Sep-24 05:36 197 9 gusting 15
2020-Sep-24 05:30 199 9 gusting 14
2020-Sep-24 05:24 199 8 gusting 13
2020-Sep-24 05:18 198 6 gusting 13
2020-Sep-24 05:12 196 7 gusting 10
2020-Sep-24 05:06 200 7 gusting 11
2020-Sep-24 05:00 188 6 gusting 9
2020-Sep-24 04:54 188 6 gusting 12
2020-Sep-24 04:48 192 5 gusting 9
2020-Sep-24 04:42 171 5 gusting 13
2020-Sep-24 04:36 191 5 gusting 15
2020-Sep-24 04:30 194 7 gusting 13
2020-Sep-24 04:24 179 4 gusting 10
2020-Sep-24 04:18 197 7 gusting 13
2020-Sep-24 04:12 201 8 gusting 13
2020-Sep-24 04:06 185 6 gusting 12
2020-Sep-24 04:00 194 7 gusting 12
2020-Sep-24 03:54 178 4 gusting 7
2020-Sep-24 03:48 172 4 gusting 9
2020-Sep-24 03:42 172 5 gusting 8
2020-Sep-24 03:36 170 5 gusting 9
2020-Sep-24 03:30 187 5 gusting 12
2020-Sep-24 03:24 182 5 gusting 11
2020-Sep-24 03:18 181 5 gusting 12
2020-Sep-24 03:12 184 6 gusting 11
2020-Sep-24 03:06 192 8 gusting 16
2020-Sep-24 03:00 200 10 gusting 16
2020-Sep-24 02:54 167 5 gusting 11
2020-Sep-24 02:48 181 6 gusting 9
2020-Sep-24 02:42 192 6 gusting 11
2020-Sep-24 02:36 167 4 gusting 6
2020-Sep-24 02:30 164 3 gusting 6
2020-Sep-24 02:24 155 2 gusting 4
2020-Sep-24 02:18 188 2 gusting 5
2020-Sep-24 02:12 225 4 gusting 6
2020-Sep-24 02:06 220 1 gusting 8
2020-Sep-24 02:00 244 6 gusting 7
2020-Sep-24 01:54 204 5 gusting 7
2020-Sep-24 01:48 170 3 gusting 4
2020-Sep-24 01:42 153 4 gusting 7
2020-Sep-24 01:36 145 4 gusting 6
2020-Sep-24 01:30 140 4 gusting 6
2020-Sep-24 01:24 135 6 gusting 8
2020-Sep-24 01:18 144 6 gusting 11
2020-Sep-24 01:12 133 8 gusting 11
2020-Sep-24 01:06 131 7 gusting 10
2020-Sep-24 01:00 144 9 gusting 11
2020-Sep-24 00:54 139 6 gusting 12
2020-Sep-24 00:48 123 8 gusting 15
2020-Sep-24 00:42 143 8 gusting 12
2020-Sep-24 00:36 137 8 gusting 13
2020-Sep-24 00:30 133 10 gusting 15
2020-Sep-24 00:24 137 12 gusting 15
2020-Sep-24 00:18 137 9 gusting 13
2020-Sep-24 00:12 136 7 gusting 11
2020-Sep-24 00:06 147 7 gusting 10
2020-Sep-24 00:00 134 7 gusting 9
2020-Sep-23 23:48 133 6 gusting 10
2020-Sep-23 23:42 135 6 gusting 12
2020-Sep-23 23:36 136 8 gusting 11
2020-Sep-23 23:30 139 8 gusting 11
2020-Sep-23 23:24 149 7 gusting 13
2020-Sep-23 23:18 155 10 gusting 15
2020-Sep-23 23:12 138 9 gusting 13
2020-Sep-23 23:06 146 7 gusting 10
2020-Sep-23 23:00 148 6 gusting 8
2020-Sep-23 22:54 144 6 gusting 13
2020-Sep-23 22:48 149 6 gusting 13
2020-Sep-23 22:42 149 6 gusting 15
2020-Sep-23 22:36 148 7 gusting 12
2020-Sep-23 22:30 152 8 gusting 11
2020-Sep-23 22:24 146 6 gusting 12
2020-Sep-23 22:18 149 6 gusting 9
2020-Sep-23 22:12 149 8 gusting 11
2020-Sep-23 22:06 152 8 gusting 11
2020-Sep-23 22:00 147 7 gusting 12
2020-Sep-23 21:54 145 7 gusting 11
2020-Sep-23 21:48 142 6 gusting 11
2020-Sep-23 21:42 142 8 gusting 11
2020-Sep-23 21:36 144 9 gusting 13
2020-Sep-23 21:30 142 9 gusting 13
2020-Sep-23 21:24 140 8 gusting 14
2020-Sep-23 21:18 142 9 gusting 13
2020-Sep-23 21:12 137 9 gusting 11
2020-Sep-23 21:06 142 8 gusting 13
2020-Sep-23 21:00 148 5 gusting 7
2020-Sep-23 20:54 165 4 gusting 8
2020-Sep-23 20:48 192 6 gusting 8
2020-Sep-23 20:42 195 3 gusting 11
2020-Sep-23 20:36 170 5 gusting 9
2020-Sep-23 20:30 156 4 gusting 10
2020-Sep-23 20:24 150 7 gusting 12
2020-Sep-23 20:18 146 8 gusting 12
2020-Sep-23 20:12 138 8 gusting 13
2020-Sep-23 20:06 142 7 gusting 11
2020-Sep-23 20:00 141 8 gusting 12
2020-Sep-23 19:54 138 9 gusting 13
2020-Sep-23 19:48 140 11 gusting 16
2020-Sep-23 19:42 140 10 gusting 13
2020-Sep-23 19:36 139 10 gusting 14
2020-Sep-23 19:30 139 10 gusting 17
2020-Sep-23 19:24 143 13 gusting 17
2020-Sep-23 19:18 141 13 gusting 16
2020-Sep-23 19:12 144 12 gusting 16
2020-Sep-23 19:06 142 13 gusting 15
2020-Sep-23 19:00 145 9 gusting 16
2020-Sep-23 18:54 145 11 gusting 18
2020-Sep-23 18:48 144 9 gusting 14
2020-Sep-23 18:42 149 11 gusting 15
2020-Sep-23 18:36 142 8 gusting 12
2020-Sep-23 18:30 146 6 gusting 11
2020-Sep-23 18:24 143 5 gusting 8
2020-Sep-23 18:18 154 4 gusting 6
2020-Sep-23 18:12 159 4 gusting 8
2020-Sep-23 18:06 144 5 gusting 9
2020-Sep-23 18:00 150 6 gusting 9
2020-Sep-23 17:54 145 7 gusting 11
2020-Sep-23 17:48 146 7 gusting 13
2020-Sep-23 17:42 156 4 gusting 9
2020-Sep-23 17:36 163 4 gusting 8
2020-Sep-23 17:30 163 5 gusting 11
2020-Sep-23 17:24 151 5 gusting 10
2020-Sep-23 17:18 148 6 gusting 7
2020-Sep-23 17:12 154 3 gusting 5
2020-Sep-23 17:06 157 2 gusting 4
2020-Sep-23 17:00 154 3 gusting 5
2020-Sep-23 16:54 124 3 gusting 6
2020-Sep-23 16:48 098 0 gusting 5
2020-Sep-23 16:42 137 5 gusting 6
2020-Sep-23 16:36 123 7 gusting 11
2020-Sep-23 16:30 127 7 gusting 10
2020-Sep-23 16:24 134 6 gusting 8
2020-Sep-23 16:18 127 5 gusting 6
2020-Sep-23 16:12 132 3 gusting 5
2020-Sep-23 16:06 126 5 gusting 8
2020-Sep-23 16:00 124 6 gusting 8
2020-Sep-23 15:54 122 6 gusting 7
2020-Sep-23 15:48 121 5 gusting 6
2020-Sep-23 15:42 130 4 gusting 6
2020-Sep-23 15:36 136 5 gusting 7
2020-Sep-23 15:30 117 5 gusting 6
2020-Sep-23 15:24 124 4 gusting 6
2020-Sep-23 15:18 138 2 gusting 5
2020-Sep-23 15:12 140 3 gusting 4
2020-Sep-23 15:06 119 3 gusting 4
2020-Sep-23 15:00 120 3 gusting 6
2020-Sep-23 14:54 125 4 gusting 6
2020-Sep-23 14:48 117 5 gusting 7
2020-Sep-23 14:42 115 5 gusting 6
2020-Sep-23 14:36 125 4 gusting 7
2020-Sep-23 14:30 115 5 gusting 6
2020-Sep-23 14:24 118 5 gusting 7
2020-Sep-23 14:18 121 5 gusting 6
2020-Sep-23 14:12 129 3 gusting 6
2020-Sep-23 14:06 129 4 gusting 6
2020-Sep-23 14:00 137 6 gusting 8
2020-Sep-23 13:54 132 6 gusting 8
2020-Sep-23 13:48 129 5 gusting 8
2020-Sep-23 13:42 120 6 gusting 7
2020-Sep-23 13:36 126 6 gusting 10
2020-Sep-23 13:30 134 6 gusting 10
2020-Sep-23 13:24 123 8 gusting 10
2020-Sep-23 13:18 121 5 gusting 7
2020-Sep-23 13:12 117 6 gusting 8
2020-Sep-23 13:06 119 6 gusting 9
2020-Sep-23 13:00 128 5 gusting 7
2020-Sep-23 12:54 131 5 gusting 8
2020-Sep-23 12:48 121 5 gusting 7
2020-Sep-23 12:42 118 6 gusting 8
2020-Sep-23 12:36 116 6 gusting 8
2020-Sep-23 12:30 121 6 gusting 7
2020-Sep-23 12:24 118 5 gusting 7
2020-Sep-23 12:18 123 4 gusting 6
2020-Sep-23 12:12 121 4 gusting 6
2020-Sep-23 12:06 128 4 gusting 6
2020-Sep-23 12:00 129 5 gusting 6